TITAN 3C TRANSTAGE DEB

基本信息
目录编号:
1835
目录名称:
TITAN 3C TRANSTAGE DEB
国际标识:
1965-082EA
轨道中心:
EARTH
物体状态:
在轨
发射日期:
1965-10-15 UTC
轨道信息
数据来源: 国际轨道数据
星历时间: 2026-09-11T12:14:36+0800
半长轴: 6915.244km
偏心率: 0.0011801
轨道倾角: 32.394°
近地点辐角: 334.447°
升交点赤经: 195.695°
平近点角: 25.561°
近地点: 528.946km
远地点: 545.268km
周期: 95.383分钟
每日圈数: 15.097032
详细信息
发射场:
AFETR
轨道高度:
LEO
数据来源:
AOE Integration Group
参考系:
TEME
时间系统:
UTC
历元类型:
SGP4
2D轨道图
3D轨道图
轨道高度分析图
轨道倾角分析图
轨道综合分析图
查看轨道综合分析图